[[{"header":{"parameterUnit":"m.s-1","parameterCategory":1,"la1":30.2991,"la2":30.254,"lo1":-89.0895,"lo2":-89.0444,"dy":0.0017,"dx":0.0017,"nx":28,"ny":28,"refTime":"2025-01-02T03:00:00:Z","depth":0,"parameterNumber":2,"parameterNumberName":"U-component_of_WINDS"},"data":[0,0,0,0,0,0,0,0,0,0,0,0,0,0,0,0,0,0,0,0,0,0,0,0,0,0,0,0,0,0,0,0,0,0,0,0,0,0,0,0,0,0,0,0,0,0,0,0,0,0,0,0,0,0,0,0,0,0,-1.537,-1.5371,0,-1.5411,-1.5412,-1.5412,-1.5424,-1.5424,-1.5424,-1.5424,-1.5463,-1.5464,-1.5466,0,0,0,0,0,0,0,0,0,0,0,0,0,-1.5298,-1.53,-1.537,-1.5371,-1.5371,-1.5411,-1.5412,-1.5412,-1.5424,-1.5424,-1.5424,-1.5424,-1.5463,-1.5464,-1.5466,0,0,0,0,0,0,0,0,0,0,0,0,0,-1.5333,-1.53,-1.537,-1.5382,-1.5384,-1.5411,-1.5412,-1.5412,-1.5424,-1.5424,-1.5424,-1.5424,-1.5462,-1.5464,-1.5466,-1.5484,0,0,-1.5472,-1.5473,0,0,0,0,0,0,0,0,-1.5331,-1.5336,-1.538,-1.5381,-1.5383,-1.5412,-1.5401,-1.5436,-1.5424,-1.5409,-1.5424,-1.5423,-1.5446,-1.545,-1.5458,-1.5485,-1.5487,-1.5472,-1.5473,-1.5474,-1.5474,0,0,0,0,0,0,0,-1.5329,-1.5334,-1.5386,-1.538,-1.5382,-1.5384,-1.5389,-1.5408,-1.5429,-1.541,-1.5411,-1.5416,-1.5447,-1.5456,-1.5459,-1.5488,-1.5472,-1.5473,-1.5475,-1.5475,-1.5529,-1.5529,0,0,0,0,0,0,-1.5325,-1.5332,-1.5385,-1.5388,-1.5356,-1.5386,-1.5391,-1.5403,-1.5429,-1.5432,-1.5416,-1.5416,-1.5453,-1.5457,-1.546,-1.5481,-1.5474,-1.5476,-1.5477,-1.5529,-1.5529,-1.553,0,0,0,0,0,0,-1.5323,-1.533,-1.5383,-1.536,-1.5367,-1.5387,-1.5401,-1.5404,-1.5413,-1.5433,-1.5437,-1.5422,-1.5453,-1.5458,-1.5477,-1.5483,-1.5476,-1.5478,-1.5529,-1.5529,-1.5529,-1.5524,0,0,0,0,0,0,-1.5321,-1.5329,-1.5337,-1.536,-1.5368,-1.5401,-1.5401,-1.5405,-1.5417,-1.5417,-1.5439,-1.5442,-1.5453,-1.5474,-1.5479,-1.5485,-1.548,-1.5528,-1.5529,-1.5529,-1.5524,-1.5524,-1.5525,0,0,0,0,0,-1.5319,-1.5334,-1.5337,-1.5344,-1.5379,-1.5401,-1.5406,-1.5418,-1.5417,-1.5424,-1.5437,-1.5442,-1.5481,-1.5476,-1.5482,-1.5488,-1.5528,-1.5529,-1.5529,-1.5524,-1.5524,-1.5525,0,0,0,0,0,0,-1.531,-1.5337,-1.5341,-1.5365,-1.5381,-1.5403,-1.5413,-1.5419,-1.5435,-1.5435,-1.5449,-1.5454,-1.5472,-1.5482,-1.5476,-1.5506,-1.5505,-1.5506,-1.5498,-1.5499,-1.5499,-1.5496,-1.5481,0,0,0,0,0,-1.5311,-1.5328,-1.535,-1.5368,-1.5376,-1.5393,-1.5403,-1.5412,-1.5428,-1.5435,-1.5449,-1.5464,-1.548,-1.549,-1.5506,-1.5525,-1.5529,-1.5532,-1.5532,-1.5533,-1.5534,-1.5543,-1.5544,-1.5532,-1.5532,-1.5532,0,0,-1.5313,-1.533,-1.534,-1.5367,-1.5381,-1.5396,-1.5399,-1.5416,-1.5427,-1.5437,-1.5457,-1.5467,-1.5485,-1.5504,-1.5513,-1.5513,-1.5538,-1.5534,-1.5534,-1.5535,-1.5544,-1.5545,-1.5546,-1.5532,-1.5532,-1.5532,0,0,-1.5325,-1.534,-1.5356,-1.5369,-1.5389,-1.54,-1.5403,-1.5425,-1.5432,-1.5452,-1.5459,-1.5472,-1.55,-1.5511,-1.5521,-1.5534,-1.5539,-1.5539,-1.5541,-1.555,-1.5551,-1.5552,-1.5555,-1.5557,-1.554,-1.554,-1.554,0,-1.5324,-1.535,-1.5363,-1.5379,-1.539,-1.54,-1.5415,-1.5427,-1.5451,-1.5458,-1.5457,-1.5491,-1.5503,-1.5524,-1.5527,-1.5535,-1.5539,-1.5537,-1.555,-1.5551,-1.5552,-1.5555,-1.5557,-1.554,-1.554,-1.554,-1.554,0,-1.5347,-1.5365,-1.5375,-1.5398,-1.541,-1.5426,-1.544,-1.545,-1.5457,-1.5467,-1.5486,-1.5501,-1.5519,-1.5525,-1.5531,-1.5546,-1.5545,-1.5547,-1.5546,-1.5552,-1.5556,-1.5558,-1.554,-1.554,-1.554,-1.554,0,0,-1.5356,-1.5385,-1.5389,-1.5398,-1.542,-1.5433,-1.5448,-1.5466,-1.5474,-1.5489,-1.5502,-1.5523,-1.5525,-1.5535,-1.5543,-1.5551,-1.5558,-1.5551,-1.5552,-1.5551,-1.5574,-1.5572,-1.5574,-1.5561,-1.5562,-1.5562,-1.5572,0,-1.537,-1.5398,-1.541,-1.5432,-1.5447,-1.5456,-1.5468,-1.5482,-1.5492,-1.5505,-1.5515,-1.553,-1.5531,-1.5537,-1.5545,-1.5556,-1.5563,-1.5555,-1.5572,-1.5572,-1.5567,-1.5576,-1.5575,-1.5584,-1.5574,-1.5574,-1.5574,0,-1.539,-1.5405,-1.543,-1.5448,-1.5455,-1.5466,-1.5483,-1.5495,-1.551,-1.5517,-1.5528,-1.5534,-1.5549,-1.5547,-1.5566,-1.556,-1.5567,-1.5573,-1.5574,-1.5576,-1.5574,-1.5577,-1.5587,-1.5588,-1.5577,-1.5577,-1.5576,0,-1.5392,-1.5419,-1.5437,-1.5445,-1.5467,-1.5475,-1.5484,-1.5499,-1.5508,-1.5522,-1.5528,-1.5543,-1.5552,-1.5562,-1.5572,-1.557,-1.559,-1.5589,-1.5594,-1.5594,-1.5598,-1.5598,-1.5609,-1.5603,-1.5603,-1.5603,-1.5603,0,-1.5406,-1.542,-1.5438,-1.5449,-1.5464,-1.5476,-1.5491,-1.55,-1.5513,-1.5525,-1.5533,-1.5543,-1.5556,-1.5567,-1.5575,-1.5589,-1.5593,-1.5597,-1.5599,-1.5596,-1.5596,-1.5601,-1.5601,-1.5604,-1.5604,-1.5604,-1.5604,0,-1.5411,-1.5424,-1.5443,-1.5462,-1.5467,-1.5478,-1.5493,-1.5503,-1.5513,-1.5527,-1.5531,-1.5545,-1.5559,-1.557,-1.5588,-1.5593,-1.5608,-1.561,-1.5603,-1.5604,-1.5608,-1.5607,-1.5622,-1.5625,-1.5618,-1.5618,-1.5618,0,-1.5419,-1.543,-1.545,-1.5459,-1.5468,-1.5482,-1.5491,-1.5503,-1.5512,-1.5529,-1.5537,-1.5551,-1.5564,-1.5585,-1.5596,-1.561,-1.5612,-1.5616,-1.5614,-1.5611,-1.5611,-1.561,-1.5611,-1.5616,-1.5617,-1.5617,-1.5617,0,-1.5431,-1.5436,-1.545,-1.5466,-1.5477,-1.549,-1.5503,-1.5509,-1.5523,-1.5533,-1.5547,-1.5557,-1.5575,-1.5589,-1.5603,-1.5611,-1.5616,-1.5617,-1.5619,-1.5616,-1.5611,-1.5613,-1.5603,-1.5617,-1.5617,-1.5617,-1.5617,-1.5617,-1.5437,-1.5447,-1.5462,-1.5477,-1.5488,-1.5499,-1.5509,-1.5519,-1.5532,-1.5548,-1.5553,-1.5568,-1.5581,-1.5601,-1.5609,-1.5619,-1.562,-1.5622,-1.5623,-1.5623,-1.5623,-1.561,-1.5622,-1.5622,-1.5622,-1.5622,-1.5622,0,-1.5449,-1.5459,-1.5472,-1.549,-1.5501,-1.5505,-1.5519,-1.5527,-1.554,-1.5552,-1.5564,-1.558,-1.5593,-1.5605,-1.5618,-1.5624,-1.5626,-1.5627,-1.5626,-1.5628,-1.5622,-1.5619,-1.5625,-1.5625,-1.5625,-1.5625,-1.5625,-1.5625,-1.5456,-1.5472,-1.5479,-1.5499,-1.5509,-1.5524,-1.5531,-1.5541,-1.5551,-1.5568,-1.5579,-1.5587,-1.5598,-1.5612,-1.5624,-1.5627,-1.5631,-1.5631,-1.5634,-1.5629,-1.5628,-1.5628,-1.5625,-1.5632,-1.5632,-1.5639,-1.5639,-1.5639]},{"header":{"parameterUnit":"m.s-1","parameterCategory":1,"la1":30.2991,"la2":30.254,"lo1":-89.0895,"lo2":-89.0444,"dy":0.0017,"dx":0.0017,"nx":28,"ny":28,"refTime":"2025-01-02T03:00:00:Z","depth":0,"parameterNumber":3,"parameterNumberName":"V-component_of_WINDS"},"data":[0,0,0,0,0,0,0,0,0,0,0,0,0,0,0,0,0,0,0,0,0,0,0,0,0,0,0,0,0,0,0,0,0,0,0,0,0,0,0,0,0,0,0,0,0,0,0,0,0,0,0,0,0,0,0,0,0,0,0.3598,0.3599,0,0.3718,0.3719,0.372,0.3688,0.3686,0.3683,0.3681,0.3803,0.3808,0.3814,0,0,0,0,0,0,0,0,0,0,0,0,0,0.3344,0.3349,0.3598,0.36,0.3601,0.3717,0.3719,0.3721,0.3688,0.3685,0.3683,0.368,0.3801,0.3808,0.3814,0,0,0,0,0,0,0,0,0,0,0,0,0,0.3458,0.3351,0.3598,0.3599,0.36,0.3717,0.3719,0.3721,0.3689,0.3685,0.3682,0.3678,0.3799,0.3807,0.3815,0.3938,0,0,0.384,0.3844,0,0,0,0,0,0,0,0,0.3452,0.3468,0.3597,0.3599,0.3601,0.3684,0.3674,0.3794,0.369,0.3655,0.3681,0.3677,0.3766,0.3777,0.3807,0.3944,0.3949,0.3841,0.3846,0.385,0.3852,0,0,0,0,0,0,0,0.3444,0.3462,0.3645,0.3599,0.3601,0.3594,0.3607,0.3697,0.373,0.3658,0.3656,0.3671,0.3767,0.38,0.381,0.3951,0.3841,0.3848,0.3853,0.3856,0.4199,0.4203,0,0,0,0,0,0,0.3435,0.3456,0.3641,0.3649,0.3516,0.3602,0.3615,0.3661,0.3728,0.3735,0.3674,0.3669,0.3787,0.38,0.3814,0.3966,0.385,0.3857,0.3862,0.4195,0.42,0.4204,0,0,0,0,0,0,0.3429,0.3451,0.3637,0.3552,0.3575,0.361,0.3661,0.3665,0.3698,0.374,0.3746,0.3701,0.3785,0.3803,0.3909,0.3969,0.3861,0.3868,0.419,0.4196,0.4202,0.4268,0,0,0,0,0,0,0.3422,0.345,0.3496,0.3553,0.358,0.3728,0.3665,0.367,0.3712,0.3707,0.3768,0.3774,0.3783,0.3896,0.3917,0.3979,0.3875,0.4184,0.4193,0.42,0.426,0.4275,0.4288,0,0,0,0,0,0.3413,0.3508,0.3498,0.3521,0.3638,0.3732,0.3747,0.3756,0.3717,0.3765,0.3793,0.3772,0.3959,0.3908,0.393,0.3996,0.4181,0.419,0.4199,0.4254,0.4272,0.4288,0,0,0,0,0,0,0.3456,0.3516,0.3505,0.3622,0.3672,0.3726,0.3786,0.3775,0.3837,0.3829,0.3838,0.3852,0.3961,0.3988,0.393,0.412,0.4064,0.4079,0.4098,0.4116,0.413,0.4122,0.3882,0,0,0,0,0,0.3479,0.355,0.3598,0.3697,0.3723,0.3751,0.3791,0.3795,0.3847,0.3868,0.3903,0.3955,0.4026,0.4072,0.4139,0.4264,0.4279,0.432,0.4334,0.4346,0.4358,0.4431,0.4451,0.4235,0.4235,0.4235,0,0,0.3527,0.3569,0.3613,0.3707,0.3746,0.3821,0.3768,0.3848,0.3905,0.388,0.3983,0.4011,0.407,0.4187,0.424,0.4213,0.4422,0.4358,0.4366,0.4373,0.4442,0.4463,0.4481,0.4241,0.424,0.4239,0,0,0.3654,0.3691,0.3779,0.3821,0.3882,0.39,0.3922,0.3979,0.3997,0.41,0.4085,0.4152,0.4273,0.4317,0.4355,0.4503,0.4488,0.4524,0.4598,0.4668,0.4685,0.4701,0.4757,0.4776,0.4537,0.4537,0.4537,0,0.3706,0.3818,0.3826,0.3909,0.3952,0.3935,0.4026,0.4065,0.4145,0.4176,0.4144,0.4299,0.4337,0.4466,0.4503,0.4533,0.4559,0.4518,0.4682,0.4697,0.4712,0.4765,0.4786,0.4541,0.4541,0.454,0.454,0,0.3881,0.3959,0.4023,0.4102,0.4152,0.4238,0.4261,0.4311,0.4311,0.4333,0.4441,0.4487,0.4565,0.4595,0.4594,0.4726,0.4708,0.4679,0.4624,0.4737,0.4787,0.4808,0.4547,0.4546,0.4544,0.4543,0,0,0.4036,0.4122,0.4145,0.4183,0.4251,0.4312,0.4399,0.4476,0.4521,0.4577,0.4652,0.4756,0.4732,0.4775,0.478,0.4841,0.496,0.4806,0.4807,0.4835,0.5112,0.5134,0.5158,0.495,0.4954,0.4957,0.5108,0,0.4171,0.4324,0.4336,0.4475,0.4549,0.4536,0.4612,0.4663,0.4687,0.4754,0.478,0.4856,0.4816,0.4843,0.4902,0.4933,0.5016,0.4922,0.5022,0.5025,0.501,0.5184,0.5207,0.5347,0.5127,0.5131,0.5133,0,0.4348,0.4412,0.4559,0.4621,0.4652,0.472,0.4795,0.4858,0.4917,0.493,0.4981,0.4978,0.507,0.501,0.5138,0.5074,0.5116,0.5137,0.5143,0.5154,0.5087,0.5202,0.5391,0.5413,0.5164,0.5161,0.5159,0,0.445,0.4573,0.4678,0.471,0.4784,0.4833,0.4866,0.4921,0.4968,0.5033,0.5065,0.5139,0.518,0.5239,0.5257,0.5211,0.5386,0.5327,0.5401,0.5401,0.5439,0.5437,0.5641,0.5463,0.5462,0.5462,0.5462,0,0.4601,0.4692,0.4726,0.479,0.4893,0.4907,0.5009,0.5039,0.5089,0.516,0.5152,0.522,0.5239,0.5311,0.5325,0.5431,0.5449,0.5464,0.5467,0.5466,0.5465,0.5495,0.5486,0.5468,0.5466,0.5465,0.5464,0,0.4732,0.4759,0.4873,0.4934,0.4952,0.5026,0.5079,0.5142,0.5166,0.5257,0.5279,0.5317,0.5401,0.5425,0.5525,0.5536,0.5661,0.5654,0.5642,0.5643,0.5717,0.5711,0.5949,0.5982,0.578,0.5782,0.5784,0,0.4828,0.4898,0.4968,0.5016,0.5052,0.5129,0.5178,0.5195,0.5247,0.5322,0.5377,0.546,0.5528,0.5664,0.5701,0.5779,0.5775,0.5853,0.5786,0.5785,0.578,0.5776,0.5785,0.5866,0.5868,0.587,0.5871,0,0.4995,0.5006,0.5077,0.5154,0.5214,0.5275,0.5334,0.5374,0.54,0.5458,0.5545,0.5598,0.5703,0.5787,0.5867,0.5902,0.5893,0.5892,0.5914,0.5915,0.5906,0.5915,0.5679,0.5887,0.5885,0.5884,0.5883,0.5883,0.5113,0.5177,0.5238,0.5319,0.5365,0.5422,0.5486,0.5519,0.5592,0.5679,0.5685,0.578,0.5841,0.5947,0.5987,0.6062,0.6039,0.607,0.6079,0.6087,0.6095,0.5892,0.6076,0.6076,0.6076,0.6075,0.6075,0,0.5283,0.5322,0.5396,0.5481,0.5546,0.5531,0.5597,0.5652,0.5737,0.5794,0.5862,0.5964,0.6047,0.6091,0.6174,0.6227,0.6225,0.6248,0.6245,0.6254,0.6109,0.6083,0.6248,0.6248,0.6248,0.6248,0.6248,0.6248,0.5378,0.5487,0.5505,0.5638,0.5676,0.5771,0.581,0.5863,0.591,0.6024,0.6094,0.6122,0.6176,0.6263,0.6339,0.6351,0.6383,0.6409,0.6418,0.6282,0.6264,0.6247,0.6223,0.6416,0.6416,0.6558,0.6559,0.656]}]]